TimeEDT,TemperatureF,Dew PointF,Humidity,Sea Level PressureIn,VisibilityMPH,Wind Direction,Wind SpeedMPH,Gust SpeedMPH,PrecipitationIn,Events,Conditions,WindDirDegrees,DateUTC
12:52 AM,71.1,68.0,90,30.17,10.0,Calm,Calm,-,N/A,,Clear,0,2013-07-16 04:52:00
1:52 AM,69.1,68.0,96,30.17,9.0,Calm,Calm,-,N/A,,Clear,0,2013-07-16 05:52:00
2:52 AM,68.0,66.0,93,30.17,10.0,Calm,Calm,-,N/A,,Clear,0,2013-07-16 06:52:00
3:31 AM,66.2,64.4,94,30.17,3.0,Calm,Calm,-,N/A,,Scattered Clouds,0,2013-07-16 07:31:00
3:35 AM,66.2,66.2,100,30.17,1.8,Calm,Calm,-,N/A,,Scattered Clouds,0,2013-07-16 07:35:00
3:43 AM,66.2,64.4,94,30.17,3.0,Calm,Calm,-,N/A,,Partly Cloudy,0,2013-07-16 07:43:00
3:52 AM,66.9,66.0,97,30.16,7.0,Calm,Calm,-,N/A,,Partly Cloudy,0,2013-07-16 07:52:00
4:52 AM,66.9,64.9,93,30.16,10.0,Calm,Calm,-,N/A,,Clear,0,2013-07-16 08:52:00
5:00 AM,66.2,64.4,94,30.17,1.8,Calm,Calm,-,N/A,,Clear,0,2013-07-16 09:00:00
5:11 AM,64.4,64.4,100,30.18,3.0,Calm,Calm,-,N/A,,Clear,0,2013-07-16 09:11:00
5:52 AM,64.9,64.0,97,30.18,9.0,Calm,Calm,-,N/A,,Clear,0,2013-07-16 09:52:00
6:52 AM,69.1,66.0,90,30.19,10.0,Calm,Calm,-,N/A,,Clear,0,2013-07-16 10:52:00
7:52 AM,73.0,66.9,81,30.19,10.0,Calm,Calm,-,N/A,,Overcast,0,2013-07-16 11:52:00
8:52 AM,78.1,66.0,66,30.19,10.0,Calm,Calm,-,N/A,,Partly Cloudy,0,2013-07-16 12:52:00
9:52 AM,82.9,64.9,54,30.19,10.0,NNW,12.7,-,N/A,,Clear,330,2013-07-16 13:52:00
10:52 AM,86.0,66.0,51,30.18,10.0,NW,9.2,-,N/A,,Clear,320,2013-07-16 14:52:00
11:52 AM,90.0,64.0,42,30.17,10.0,North,11.5,23.0,N/A,,Clear,350,2013-07-16 15:52:00
12:52 PM,91.0,62.1,38,30.16,10.0,North,13.8,20.7,N/A,,Clear,360,2013-07-16 16:52:00
1:52 PM,91.9,63.0,38,30.15,10.0,NW,10.4,-,N/A,,Partly Cloudy,320,2013-07-16 17:52:00
2:52 PM,91.9,63.0,38,30.15,10.0,NW,11.5,-,N/A,,Scattered Clouds,310,2013-07-16 18:52:00
3:52 PM,91.9,63.0,38,30.14,10.0,NNW,10.4,-,N/A,,Clear,340,2013-07-16 19:52:00
4:52 PM,91.9,63.0,38,30.14,10.0,NW,10.4,-,N/A,,Scattered Clouds,320,2013-07-16 20:52:00
5:52 PM,91.0,64.0,41,30.14,10.0,North,11.5,-,N/A,,Clear,360,2013-07-16 21:52:00
6:52 PM,89.1,64.9,45,30.14,10.0,North,5.8,-,N/A,,Clear,360,2013-07-16 22:52:00
7:52 PM,86.0,66.9,53,30.16,10.0,Calm,Calm,-,N/A,,Scattered Clouds,0,2013-07-16 23:52:00
8:52 PM,79.0,70.0,74,30.17,10.0,Calm,Calm,-,N/A,,Clear,0,2013-07-17 00:52:00
9:52 PM,75.9,69.1,79,30.18,10.0,Calm,Calm,-,N/A,,Clear,0,2013-07-17 01:52:00
10:52 PM,73.9,69.1,85,30.19,10.0,Calm,Calm,-,N/A,,Clear,0,2013-07-17 02:52:00
11:52 PM,72.0,69.1,91,30.19,10.0,NNW,3.5,-,N/A,,Clear,340,2013-07-17 03:52:00